Weather History for Charleston, SC

Change the Weather History Date:

Wednesday, April 10, 2013

  Actual Average (KCHS) Record (KCHS)
Temperature  
Mean Temperature 68 °F 64 °F  
Max Temperature 78 °F 75 °F 90 °F (1978)
Min Temperature 59 °F 52 °F 30 °F (1972)
Degree Days  
Heating Degree Days 0 4  
Month to date heating degree days 43  
Since 1 July heating degree days 1918  
Cooling Degree Days 4 2  
Month to date cooling degree days 19  
Year to date cooling degree days 53  
Growing Degree Days 18 (Base 50)    
Moisture  
Dew Point 61 °F    
Average Humidity 79    
Maximum Humidity 100    
Minimum Humidity 54    
Precipitation  
Precipitation 0.00 in 0.09 in 1.80 in (1941)
Month to date precipitation 0.99  
Year to date precipitation 11.37  
Sea Level Pressure  
Sea Level Pressure 30.13 in    
Wind  
Wind Speed 5 mph (South)    
Max Wind Speed 14 mph    
Max Gust Speed 20 mph    
Visibility 9 miles    
Events Fog    
T = Trace of Precipitation, MM = Missing Value Source: NWS Daily Summary

Daily Weather History Graph

Daily Weather History Graph

Search for Another Location

Airport:

Trip Planner

Search our weather history database for the weather conditions in past years. The results will help you decide how hot, cold, wet, or windy it might be!

Date:

Astronomy

Apr. 10, 2013 Rise Set
Actual Time 6:56 AM EDT 7:46 PM EDT
Civil Twilight 6:31 AM EDT 8:11 PM EDT
Nautical Twilight 6:01 AM EDT 8:41 PM EDT
Astronomical Twilight 5:31 AM EDT 9:11 PM EDT
Moon 6:53 AM EDT (4/10) 8:17 PM EDT (4/10)
Length of Visible Light 13h 40m
Length of Day
12h 50m
New Moon, 0% of the Moon is Illuminated
Apr 10
New Moon
Apr 18
First Quarter
Apr 25
Full
May 2
Last Quarter
May 9
New

Hourly Weather History & Observations

Time (EDT) Temp. Dew Point Humidity Pressure Visibility Wind Dir Wind Speed Gust Speed Precip Events Conditions
12:15 AM 64.4 °F 62.6 °F 94% 30.17 in 9.0 mi South 5.8 mph - 0.00 in   Clear
12:35 AM 62.6 °F 62.6 °F 100% 30.17 in 10.0 mi South 5.8 mph - 0.00 in   Clear
12:55 AM 62.6 °F 62.6 °F 100% 30.17 in 10.0 mi South 4.6 mph - 0.00 in   Clear
1:15 AM 62.6 °F 60.8 °F 94% 30.17 in 10.0 mi South 4.6 mph - 0.00 in   Clear
1:35 AM 64.4 °F 60.8 °F 88% 30.16 in 10.0 mi Calm Calm - 0.00 in   Clear
1:55 AM 62.6 °F 60.8 °F 94% 30.15 in 10.0 mi South 5.8 mph - 0.00 in   Clear
2:15 AM 64.4 °F 62.6 °F 94% 30.14 in 10.0 mi South 5.8 mph - 0.00 in   Clear
2:35 AM 64.4 °F 60.8 °F 88% 30.13 in 10.0 mi South 6.9 mph - 0.00 in   Clear
2:55 AM 64.4 °F 60.8 °F 88% 30.12 in 10.0 mi South 6.9 mph - 0.00 in   Clear
3:15 AM 64.4 °F 60.8 °F 88% 30.13 in 10.0 mi SSW 4.6 mph - 0.00 in   Clear
3:35 AM 62.6 °F 60.8 °F 94% 30.12 in 10.0 mi Calm Calm - 0.00 in   Clear
3:55 AM 62.6 °F 60.8 °F 94% 30.12 in 10.0 mi Calm Calm - 0.00 in   Clear
4:15 AM 62.6 °F 60.8 °F 94% 30.12 in 10.0 mi South 3.5 mph - 0.00 in   Clear
4:35 AM 62.6 °F 60.8 °F 94% 30.13 in 10.0 mi Calm Calm - 0.00 in   Clear
4:55 AM 62.6 °F 60.8 °F 94% 30.13 in 10.0 mi SSW 3.5 mph - 0.00 in   Clear
5:15 AM 62.6 °F 60.8 °F 94% 30.13 in 10.0 mi Calm Calm - 0.00 in   Clear
5:35 AM 60.8 °F 60.8 °F 100% 30.13 in 0.8 mi Calm Calm - 0.00 in   Mist
5:55 AM 60.8 °F 60.8 °F 100% 30.14 in 2.5 mi Calm Calm - 0.00 in   Clear
6:15 AM 60.8 °F 57.2 °F 88% 30.14 in 1.2 mi Calm Calm - 0.00 in   Clear
6:35 AM 59.0 °F 57.2 °F 94% 30.15 in 9.0 mi Calm Calm - 0.00 in   Clear
6:55 AM 60.8 °F 57.2 °F 88% 30.15 in 10.0 mi Calm Calm - 0.00 in   Clear
7:15 AM 59.0 °F 57.2 °F 94% 30.15 in 6.0 mi South 3.5 mph - 0.00 in   Partly Cloudy
7:35 AM 60.8 °F 57.2 °F 88% 30.16 in 5.0 mi Calm Calm - 0.00 in   Partly Cloudy
7:55 AM 62.6 °F 60.8 °F 94% 30.16 in 10.0 mi Calm Calm - 0.00 in   Clear
8:15 AM 68.0 °F 62.6 °F 83% 30.17 in 10.0 mi Calm Calm - 0.00 in   Clear
8:35 AM 71.6 °F 64.4 °F 78% 30.17 in 10.0 mi Calm Calm - 0.00 in   Clear
8:55 AM 69.8 °F 64.4 °F 83% 30.17 in 10.0 mi SW 3.5 mph - 0.00 in   Clear
9:15 AM 71.6 °F 64.4 °F 78% 30.17 in 10.0 mi SW 4.6 mph - 0.00 in   Clear
9:35 AM 73.4 °F 64.4 °F 73% 30.18 in 10.0 mi SW 9.2 mph - 0.00 in   Clear
9:55 AM 73.4 °F 62.6 °F 69% 30.18 in 10.0 mi SSW 11.5 mph - 0.00 in   Clear
10:15 AM 75.2 °F 62.6 °F 65% 30.18 in 10.0 mi SW 10.4 mph - 0.00 in   Clear
10:35 AM 75.2 °F 60.8 °F 61% 30.19 in 10.0 mi SW 13.8 mph 18.4 mph 0.00 in   Clear
10:55 AM 75.2 °F 60.8 °F 61% 30.20 in 10.0 mi SW 12.7 mph - 0.00 in   Clear
11:15 AM 75.2 °F 60.8 °F 61% 30.19 in 10.0 mi SSW 9.2 mph 19.6 mph 0.00 in   Clear
11:35 AM 77.0 °F 60.8 °F 57% 30.19 in 10.0 mi South 10.4 mph - 0.00 in   Partly Cloudy
11:55 AM 75.2 °F 60.8 °F 61% 30.18 in 10.0 mi South 6.9 mph 16.1 mph 0.00 in   Clear
12:15 PM 77.0 °F 60.8 °F 57% 30.18 in 10.0 mi South 10.4 mph - 0.00 in   Clear
12:35 PM 77.0 °F 60.8 °F 57% 30.18 in 10.0 mi SSE 8.1 mph - 0.00 in   Clear
12:55 PM 77.0 °F 60.8 °F 57% 30.17 in 10.0 mi SSW 5.8 mph - 0.00 in   Clear
1:15 PM 77.0 °F 60.8 °F 57% 30.17 in 10.0 mi SSE 8.1 mph - 0.00 in   Clear
1:35 PM 77.0 °F 60.8 °F 57% 30.17 in 10.0 mi South 10.4 mph 16.1 mph 0.00 in   Clear
1:55 PM 78.8 °F 60.8 °F 54% 30.16 in 10.0 mi South 10.4 mph - 0.00 in   Clear
2:15 PM 75.2 °F 59.0 °F 57% 30.15 in 10.0 mi SSE 12.7 mph - 0.00 in   Clear
2:35 PM 75.2 °F 60.8 °F 61% 30.14 in 10.0 mi SSE 11.5 mph - 0.00 in   Clear
2:55 PM 77.0 °F 60.8 °F 57% 30.13 in 10.0 mi South 12.7 mph - 0.00 in   Clear
3:15 PM 75.2 °F 60.8 °F 61% 30.13 in 10.0 mi South 13.8 mph 17.3 mph 0.00 in   Clear
3:35 PM 77.0 °F 60.8 °F 57% 30.12 in 10.0 mi South 13.8 mph - 0.00 in   Clear
3:55 PM 77.0 °F 60.8 °F 57% 30.11 in 10.0 mi South 8.1 mph - 0.00 in   Clear
4:15 PM 75.2 °F 60.8 °F 61% 30.11 in 10.0 mi South 11.5 mph 16.1 mph 0.00 in   Clear
4:35 PM 75.2 °F 62.6 °F 65% 30.09 in 10.0 mi SSE 10.4 mph - 0.00 in   Clear
4:55 PM 75.2 °F 62.6 °F 65% 30.09 in 10.0 mi South 11.5 mph - 0.00 in   Clear
5:15 PM 75.2 °F 62.6 °F 65% 30.09 in 10.0 mi SSE 9.2 mph - 0.00 in   Clear
5:35 PM 75.2 °F 60.8 °F 61% 30.08 in 10.0 mi SSE 9.2 mph - 0.00 in   Clear
5:55 PM 73.4 °F 62.6 °F 69% 30.09 in 10.0 mi South 9.2 mph - 0.00 in   Clear
6:15 PM 73.4 °F 62.6 °F 69% 30.08 in 10.0 mi South 9.2 mph - 0.00 in   Clear
6:35 PM 73.4 °F 62.6 °F 69% 30.09 in 10.0 mi South 8.1 mph - 0.00 in   Clear
6:55 PM 71.6 °F 62.6 °F 73% 30.08 in 10.0 mi SSE 8.1 mph - 0.00 in   Clear
7:15 PM 71.6 °F 62.6 °F 73% 30.07 in 10.0 mi SSE 5.8 mph - 0.00 in   Clear
7:35 PM 69.8 °F 62.6 °F 78% 30.07 in 10.0 mi South 5.8 mph - 0.00 in   Clear
7:55 PM 66.2 °F 62.6 °F 88% 30.07 in 10.0 mi South 4.6 mph - 0.00 in   Clear
8:15 PM 66.2 °F 62.6 °F 88% 30.07 in 10.0 mi Calm Calm - 0.00 in   Clear
8:35 PM 68.0 °F 62.6 °F 83% 30.08 in 10.0 mi Calm Calm - 0.00 in   Clear
8:55 PM 66.2 °F 62.6 °F 88% 30.08 in 10.0 mi Calm Calm - 0.00 in   Clear
9:15 PM 66.2 °F 62.6 °F 88% 30.07 in 10.0 mi Calm Calm - 0.00 in   Clear
9:35 PM 66.2 °F 62.6 °F 88% 30.07 in 10.0 mi Calm Calm - 0.00 in   Clear
9:55 PM 66.2 °F 62.6 °F 88% 30.07 in 10.0 mi Calm Calm - 0.00 in   Clear
10:15 PM 66.2 °F 62.6 °F 88% 30.07 in 10.0 mi Calm Calm - 0.00 in   Clear
10:35 PM 66.2 °F 62.6 °F 88% 30.06 in 10.0 mi Calm Calm - 0.00 in   Clear
10:55 PM 64.4 °F 62.6 °F 94% 30.07 in 10.0 mi Calm Calm - 0.00 in   Clear
11:15 PM 64.4 °F 62.6 °F 94% 30.06 in 10.0 mi Calm Calm - 0.00 in   Clear
11:35 PM 64.4 °F 62.6 °F 94% 30.05 in 0.2 mi Calm Calm - 0.00 in Fog Fog
11:55 PM 64.4 °F 62.6 °F 94% 30.04 in 0.2 mi Calm Calm - 0.00 in Fog Fog